RH
28 99 68 64 64 51 84 100 100 100 71 52 48 40 96 100 100 86 66 79 74 76 60 50 46 45 48 52 46 36 38 76 70 69 50 44 44 39 46 28 27 26 25 26 27
20 34 100 98 72 48 47 86 100 97 91 59 61 56 43 80 100 95 88 65 58 68 77 70 59 55 50 51 56 52 52 50 87 90 83 63 50 51 51 51 30 28 28 27 26
20 23 79 87 50 57 54 56 79 87 89 58 49 50 50 47 58 55 100 80 70 78 81 76 79 100 92 80 58 56 56 64 72 95 95 94 80 58 56 60 63 42 33 28 28
26 18 60 100 100 97 90 51 49 57 54 85 58 52 43 44 62 60 99 100 85 81 100 79 56 52 70 82 94 64 52 57 62 90 93 96 100 95 87 69 75 76 72 33 31
27 21 20 72 95 100 75 34 40 49 48 75 59 65 45 39 43 64 77 100 100 100 100 100 98 78 52 51 51 74 83 66 63 79 100 100 100 100 100 97 90 90 84 85 80
34 26 19 21 55 84 100 100 41 65 43 35 57 70 52 46 38 62 58 81 74 55 63 65 96 100 91 59 51 46 81 93 86 88 100 100 74 89 100 100 100 100 94 94 99
35 32 24 20 24 76 90 100 100 58 79 44 64 55 80 51 48 64 67 53 68 68 52 54 58 81 83 100 96 71 48 76 99 96 97 93 90 70 79 68 85 100 100 98 89
27 32 27 22 20 41 74 100 100 86 100 100 66 84 62 87 95 61 83 72 85 79 54 52 48 52 52 82 100 99 70 45 67 86 78 75 81 85 88 78 77 76 80 83 73
18 27 30 29 21 21 40 73 82 98 98 98 100 100 80 97 100 75 92 86 77 77 54 48 55 57 48 48 70 84 88 80 51 49 75 72 69 51 54 59 77 83 71 78 82
16 21 26 30 30 24 24 35 62 64 90 98 92 95 79 99 99 72 100 86 89 70 47 49 59 62 44 40 47 70 65 70 72 61 53 49 50 44 41 41 51 72 68 68 89
16 16 22 28 28 31 25 23 30 37 65 65 93 100 100 100 100 85 88 91 80 90 87 52 61 66 56 60 42 43 66 74 68 54 57 65 63 57 56 62 49 56 56 62 76
18 17 16 26 30 29 28 21 24 27 33 41 48 70 77 85 92 99 85 72 100 100 95 83 82 92 69 75 72 67 52 64 76 65 52 68 85 90 74 71 62 52 51 61 68
16 18 18 18 30 31 26 30 29 25 32 33 29 28 42 43 75 60 85 96 99 87 86 100 100 94 98 90 70 84 50 50 82 80 79 100 99 96 94 85 74 68 87 72 71
12 17 20 20 20 30 29 34 34 35 28 28 31 34 24 24 28 47 46 78 87 64 60 50 29 64 100 100 94 85 75 43 52 85 91 92 90 100 100 98 90 76 78 100 95
11 12 18 20 18 19 31 40 33 41 27 34 35 45 40 30 37 30 47 46 62 70 57 45 30 24 26 34 28 21 21 24 46 69 62 65 66 97 100 100 97 100 89 84 93
11 11 12 16 22 28 23 24 34 47 26 28 38 38 43 40 43 37 35 39 41 51 53 40 29 25 27 27 27 24 24 24 30 40 42 57 51 62 96 100 100 100 100 100 100
8 11 10 12 23 32 36 33 20 22 32 32 39 47 46 45 46 53 44 44 41 42 41 38 35 32 28 26 26 24 25 21 21 26 35 39 35 39 62 76 81 98 100 100 98
8 12 11 13 25 31 38 35 36 20 17 32 50 57 41 36 35 47 50 44 44 46 46 42 41 45 45 39 36 30 25 24 26 26 28 31 30 27 34 41 42 75 72 78 99
8 8 15 15 24 27 33 39 36 25 19 19 28 49 52 43 38 50 50 53 59 62 62 59 48 49 46 42 34 32 31 32 29 28 30 33 33 32 29 27 31 34 56 95 91
8 8 14 18 24 23 26 26 35 36 22 20 20 31 58 66 59 55 57 55 59 68 70 65 58 56 52 49 45 41 41 36 34 32 30 31 35 38 36 30 26 25 26 40 74
8 9 11 18 22 25 15 15 32 35 34 23 26 24 33 53 68 70 66 61 61 65 57 50 51 61 63 64 61 52 45 38 34 33 38 42 42 40 40 37 31 26 23 22 24
9 10 12 16 20 17 9 14 23 38 46 36 27 28 26 30 40 59 61 64 62 58 57 64 62 58 63 61 62 63 60 57 47 41 33 30 38 43 44 41 36 32 28 26 22
9 11 12 14 19 18 10 15 27 40 57 47 38 37 34 41 37 44 51 55 60 60 58 66 53 56 57 63 71 71 61 50 46 44 42 40 51 52 50 46 41 42 36 34 37
8 12 13 10 13 16 13 15 29 50 64 74 60 47 48 48 36 26 26 39 54 68 72 67 59 56 68 68 58 52 50 47 44 43 46 45 50 52 48 46 44 40 41 44 41
6 12 12 12 13 14 12 15 34 61 63 75 84 62 46 45 41 40 33 30 28 34 51 60 66 66 66 63 57 48 44 41 38 36 33 39 38 47 41 37 34 36 45 47 46
4 9 9 11 12 14 13 16 24 66 66 74 78 87 61 44 43 56 62 56 49 38 34 31 31 32 36 41 46 48 45 43 42 40 34 32 36 34 32 34 36 33 32 35 38
3 6 9 11 11 12 11 23 36 64 68 100 100 94 69 67 69 71 66 51 47 39 37 34 32 26 23 18 16 18 15 14 14 14 16 18 22 23 26 26 30 34 35 37 40
Wind_Speed
87 81 73 78 72 71 70 68 67 59 59 58 54 45 44 51 51 48 44 43 41 40 40 38 37 34 31 29 28 24 22 19 17 16 16 15 16 13 12 11 9 8 9 9 10
89 87 85 80 80 80 74 76 71 65 64 60 58 52 46 46 47 47 46 45 43 39 39 40 38 38 37 35 32 29 29 24 23 19 18 19 20 20 15 13 10 9 10 10 11
92 90 93 90 87 85 77 79 77 69 65 64 64 61 54 52 49 44 50 47 46 43 40 40 39 38 38 35 37 35 34 30 29 28 25 22 23 24 22 20 16 16 15 11 11
94 94 98 98 91 90 85 82 79 75 72 70 68 68 59 57 55 51 51 49 47 45 43 43 42 41 40 37 35 35 36 37 35 32 32 29 28 28 27 27 26 23 22 19 18
102 99 100 102 97 96 93 85 86 80 74 75 72 70 62 62 57 56 51 53 50 45 43 42 44 41 40 39 39 35 36 38 37 36 32 34 32 31 28 32 30 29 30 29 26
106 104 103 104 98 103 99 94 92 87 81 78 75 77 68 68 64 62 54 55 52 47 45 50 47 44 44 43 40 41 38 38 39 33 37 38 38 34 30 32 32 34 35 36 37
110 108 106 105 103 107 108 102 97 94 90 81 80 75 72 66 62 63 62 62 55 51 48 51 46 46 43 43 45 45 43 40 38 39 36 33 39 39 36 35 34 35 38 38 37
114 111 111 108 109 107 110 101 102 98 88 92 88 83 83 73 69 68 69 65 57 57 54 53 54 54 48 48 46 46 47 47 44 44 42 38 41 39 42 45 43 42 42 42 43
109 115 114 113 111 110 110 109 105 102 100 90 94 90 84 85 79 67 74 71 63 62 61 58 60 58 56 53 52 53 50 48 50 49 46 43 47 42 44 45 47 48 44 45 45
103 110 116 117 113 113 112 112 110 109 101 97 100 90 93 93 90 87 80 74 71 65 63 64 66 61 57 58 60 56 52 52 52 51 48 47 50 48 47 48 50 49 48 48 47
101 105 112 119 117 115 113 114 112 108 104 100 103 104 108 99 91 95 86 81 85 70 67 68 67 65 66 62 59 60 55 53 57 53 51 54 55 56 52 51 53 50 48 50 50
103 103 106 116 119 117 116 113 110 111 109 108 107 105 103 102 102 93 92 90 81 75 70 72 72 76 72 69 66 62 65 63 62 59 53 55 53 60 59 57 56 57 55 49 51
99 103 104 108 117 119 115 111 112 113 112 110 107 108 107 102 100 95 96 98 92 86 78 78 76 77 76 73 72 74 68 76 73 64 60 58 59 62 65 61 58 58 56 51 51
102 104 107 108 110 118 116 111 113 114 114 112 109 103 105 102 99 100 95 95 91 85 85 82 77 79 84 81 78 76 78 78 82 80 72 72 65 64 67 66 62 59 59 60 58
104 104 104 108 106 107 114 119 112 115 122 111 109 107 106 104 99 102 103 96 91 93 90 83 82 80 79 80 77 73 75 77 78 79 75 69 68 59 71 71 68 64 63 64 64
109 109 107 104 105 105 105 109 122 124 121 112 109 106 108 103 100 103 99 95 92 90 86 84 83 81 79 80 75 72 72 73 74 78 75 70 74 61 73 75 75 71 68 68 70
106 114 108 104 103 108 109 113 116 126 120 110 106 104 105 104 105 105 100 95 91 89 86 85 85 85 85 85 82 78 77 76 72 70 66 65 66 66 73 74 78 78 75 77 74
97 111 111 106 108 108 114 116 121 114 112 114 106 105 106 106 106 103 102 97 93 90 87 87 85 84 83 84 84 82 81 78 75 71 68 68 64 68 76 78 77 80 80 81 81
90 98 112 110 112 112 117 120 119 107 107 101 111 109 105 104 103 101 100 98 96 93 90 90 88 86 85 86 86 83 81 82 79 75 71 68 67 68 77 78 79 81 80 81 82
83 94 108 116 115 115 119 116 107 111 106 98 97 106 105 102 100 101 101 97 96 97 97 94 92 89 87 86 85 83 84 83 82 79 77 73 71 71 77 77 78 79 81 82 83
81 86 105 118 119 122 118 103 104 107 104 99 95 93 100 105 104 102 100 95 96 96 97 95 93 90 90 86 87 87 85 86 85 80 76 74 73 76 80 79 79 80 81 81 83
82 84 103 117 123 121 109 100 99 102 104 100 94 92 94 98 107 108 100 97 96 94 91 91 91 88 89 89 89 88 86 87 87 84 83 80 74 81 82 82 81 80 80 80 78
84 90 104 113 118 117 107 104 99 100 101 98 93 91 89 90 89 95 104 103 96 93 91 91 89 88 87 87 88 89 89 87 86 84 81 80 75 86 84 85 83 81 79 77 78
84 92 102 101 104 110 108 104 99 97 95 95 96 93 90 89 84 81 89 94 96 97 95 92 88 87 88 91 91 86 85 84 83 79 81 77 79 85 86 85 83 81 79 80 81
85 95 99 97 100 100 101 102 98 97 92 94 94 95 91 87 83 77 77 78 81 89 94 95 95 96 96 92 89 88 87 87 85 83 81 82 80 86 87 83 81 80 81 83 85
83 95 96 96 98 101 102 103 98 94 90 88 85 88 89 86 79 78 77 75 78 76 76 80 84 89 91 96 98 96 95 95 94 94 91 91 90 93 89 87 86 85 83 82 84
77 91 93 94 94 99 96 97 91 90 85 82 81 81 82 79 79 80 80 76 71 69 65 62 63 64 67 68 68 64 80 80 80 81 85 85 88 90 90 89 87 88 87 88 86
Wind_Direction
229 227 224 221 223 225 224 229 233 233 237 243 233 234 232 230 233 234 235 238 240 239 240 242 247 248 250 253 258 262 260 261 259 255 267 273 285 294 319 335 330 331 348 348 348
231 230 226 221 225 227 228 230 235 236 238 238 231 230 235 231 230 236 237 235 238 241 242 243 245 249 252 251 253 257 263 262 261 263 258 262 270 281 282 301 309 306 311 318 326
231 230 229 223 229 224 227 230 232 234 235 234 234 232 236 236 233 232 236 236 239 241 242 241 244 251 248 253 251 253 259 264 267 266 264 263 261 269 279 280 287 292 296 277 291
234 231 227 221 224 224 226 228 228 233 237 228 235 236 234 235 238 236 233 237 240 244 242 242 246 247 249 252 252 253 254 258 260 261 267 266 263 267 272 274 279 280 286 281 280
232 232 229 228 229 223 224 227 229 230 231 227 237 240 236 233 234 234 234 233 238 239 239 243 247 248 248 252 256 256 255 253 256 261 264 268 268 268 275 271 277 276 278 280 289
233 232 232 229 229 225 224 227 233 228 232 233 234 237 233 232 233 234 235 231 235 240 248 248 245 247 248 250 256 260 256 255 256 253 255 262 265 263 273 275 277 279 279 281 280
232 232 232 232 229 224 227 225 226 227 230 227 231 232 235 233 230 233 233 232 234 239 251 247 244 249 250 252 253 256 258 255 257 250 258 267 265 268 266 267 272 275 278 279 283
231 230 231 231 231 226 228 229 226 225 227 224 232 227 231 235 232 233 236 231 234 246 251 246 244 248 254 253 253 253 255 257 256 256 258 264 266 268 274 274 274 274 274 278 281
232 229 229 232 231 229 229 230 230 228 223 227 225 222 233 231 234 231 233 232 239 245 250 250 243 245 254 253 255 255 253 255 258 257 260 266 270 272 275 276 277 271 274 280 279
231 231 228 230 231 231 229 230 230 231 231 227 228 223 229 231 234 237 235 235 241 243 250 248 244 247 252 249 252 252 256 258 257 259 262 265 268 273 272 275 275 274 277 280 277
231 230 230 228 231 231 230 231 230 232 231 235 233 231 232 234 237 236 232 235 242 243 247 246 243 244 246 254 255 255 256 260 261 260 263 267 269 271 272 272 275 273 278 277 278
231 230 230 229 229 231 230 231 232 232 232 233 234 235 237 237 238 236 236 240 240 238 244 240 244 244 247 255 260 261 256 259 263 261 259 265 267 270 273 271 268 271 273 275 273
229 229 229 230 229 230 231 231 231 232 232 233 233 234 236 239 240 243 240 244 248 250 245 241 242 246 250 257 262 260 259 256 262 261 260 266 273 271 269 268 266 271 273 271 268
227 226 228 228 229 230 231 232 231 232 234 234 234 235 236 238 240 241 244 244 247 248 248 251 251 248 249 250 254 255 257 256 262 264 262 268 271 266 266 267 267 269 269 270 269
223 225 224 226 228 230 230 231 232 233 233 231 234 235 236 238 239 241 241 243 245 247 248 249 251 252 252 250 253 255 260 260 259 260 263 268 268 259 265 266 266 267 268 270 272
222 224 226 224 225 229 230 233 233 232 232 231 233 235 237 237 239 242 242 243 244 246 248 250 251 253 254 255 254 255 257 258 258 261 265 263 269 266 258 263 265 266 267 268 271
224 222 223 224 222 226 229 231 233 232 231 230 232 235 237 237 237 240 241 243 244 244 246 248 250 252 253 255 256 255 256 260 263 264 263 262 265 260 258 259 262 264 267 269 271
225 222 222 223 223 222 225 228 233 232 229 229 229 233 236 237 238 240 242 243 245 246 246 248 250 251 253 255 256 258 260 261 259 260 261 263 263 261 261 261 261 263 266 268 269
226 223 219 222 223 223 224 225 229 232 231 229 229 231 234 236 238 239 242 242 242 244 245 247 248 250 252 254 257 259 261 261 261 261 261 262 264 265 263 265 265 265 266 267 270
224 220 217 220 222 223 224 223 225 231 231 229 230 230 232 236 238 239 239 241 242 243 244 246 248 250 253 255 258 259 259 261 261 261 262 264 266 267 268 268 267 266 267 267 269
222 218 218 218 221 223 224 223 222 228 232 231 229 230 230 233 235 237 238 239 241 242 245 248 250 251 253 254 255 258 260 261 262 264 264 263 264 266 268 268 268 268 268 269 271
220 215 218 217 219 223 224 221 221 225 229 231 230 229 232 232 233 235 238 239 241 243 245 246 248 250 252 253 255 256 258 259 261 263 264 267 268 267 267 267 268 270 270 271 272
214 213 217 216 218 221 221 220 219 222 225 229 230 231 232 234 235 237 238 241 243 245 246 246 247 250 252 254 256 255 258 261 263 264 266 266 266 267 267 268 270 270 272 273 273
211 213 217 217 218 219 220 219 217 220 222 226 231 231 232 234 236 237 238 239 241 243 245 248 250 252 253 253 255 258 260 261 263 265 264 266 265 267 268 268 268 270 272 271 272
210 212 215 215 216 217 219 218 216 218 219 222 226 232 233 235 236 237 237 239 241 242 244 247 249 251 252 255 258 259 261 262 264 264 265 265 266 266 267 269 271 271 270 271 272
212 212 214 213 213 214 214 216 215 215 217 222 226 232 235 236 237 237 236 236 238 240 243 246 249 253 256 257 259 261 264 265 263 262 263 264 266 265 268 268 268 270 272 272 273
215 214 212 213 212 214 213 214 213 215 217 217 219 226 232 235 236 236 237 239 241 243 244 247 250 251 252 255 258 260 258 263 265 265 264 265 264 265 265 266 267 267 268 270 272